Weather History for Raton, NM

Change the Weather History Date:

Friday, February 1, 2013

  Actual Average (KTAD) Record (KTAD)
Temperature  
Mean Temperature 37 °F 33 °F  
Max Temperature 59 °F 48 °F 72 °F (1963)
Min Temperature 15 °F 18 °F -20 °F (1951)
Degree Days  
Heating Degree Days 28 32  
Month to date heating degree days 32  
Since 1 July heating degree days 3314  
Cooling Degree Days 0 0  
Month to date cooling degree days 0  
Year to date cooling degree days 0  
Moisture  
Dew Point 9 °F    
Average Humidity 43    
Maximum Humidity 80    
Minimum Humidity 10    
Precipitation  
Precipitation 0.00 in 0.01 in 0.18 in (1982)
Month to date precipitation 0.01  
Year to date precipitation 0.41  
Sea Level Pressure  
Sea Level Pressure 30.10 in    
Wind  
Wind Speed 7 mph (NNE)    
Max Wind Speed 17 mph    
Max Gust Speed 28 mph    
Visibility 10 miles    
Events      
T = Trace of Precipitation, MM = Missing Value Source: NWS Daily Summary

Daily Weather History Graph

Daily Weather History Graph

Search for Another Location

Airport:

Trip Planner

Search our weather history database for the weather conditions in past years. The results will help you decide how hot, cold, wet, or windy it might be!

Date:

Astronomy

Feb. 01, 2013 Rise Set
Actual Time 6:59 AM MST 5:23 PM MST
Civil Twilight 6:32 AM MST 5:51 PM MST
Nautical Twilight 6:01 AM MST 6:22 PM MST
Astronomical Twilight 5:31 AM MST 6:52 PM MST
Moon 11:22 PM MST (2/1) 9:45 AM MST (2/1)
Length of Visible Light 11h 18m
Length of Day
10h 24m
Waning Gibbous, 69% of the Moon is Illuminated
Feb 1
Waning Gibbous
Feb 3
Last Quarter
Feb 10
New
Feb 17
First Quarter
Feb 25
Full

Hourly Weather History & Observations

Time (MST) Temp. Windchill Dew Point Humidity Pressure Visibility Wind Dir Wind Speed Gust Speed Precip Events Conditions
12:53 AM 21.0 °F 11.4 °F 12.9 °F 71% 30.14 in 10.0 mi NNW 8.1 mph - N/A   Clear
1:53 AM 24.1 °F 16.0 °F 14.0 °F 65% 30.11 in 10.0 mi NNW 6.9 mph - N/A   Clear
2:53 AM 16.0 °F 4.4 °F 9.0 °F 74% 30.12 in 10.0 mi East 9.2 mph - N/A   Clear
3:53 AM 18.0 °F - 10.9 °F 74% 30.11 in 10.0 mi Calm Calm - N/A   Clear
4:53 AM 17.1 °F 11.7 °F 10.0 °F 74% 30.13 in 10.0 mi ENE 3.5 mph - N/A   Clear
5:53 AM 15.1 °F 5.2 °F 10.0 °F 80% 30.15 in 10.0 mi NNE 6.9 mph - N/A   Clear
6:53 AM 15.1 °F 4.2 °F 9.0 °F 77% 30.16 in 10.0 mi ENE 8.1 mph - N/A   Clear
7:53 AM 19.0 °F 12.3 °F 12.0 °F 74% 30.18 in 10.0 mi NE 4.6 mph - N/A   Clear
8:53 AM 28.0 °F 20.8 °F 16.0 °F 61% 30.14 in 10.0 mi NE 6.9 mph - N/A   Clear
9:53 AM 37.9 °F 32.1 °F 16.0 °F 41% 30.09 in 10.0 mi NE 8.1 mph - N/A   Clear
10:53 AM 44.1 °F 39.5 °F 12.9 °F 28% 30.06 in 10.0 mi East 8.1 mph - N/A   Clear
11:53 AM 50.0 °F - 8.1 °F 18% 30.04 in 10.0 mi East 4.6 mph - N/A   Clear
12:53 PM 55.9 °F - 3.0 °F 12% 29.96 in 10.0 mi Calm Calm - N/A   Clear
1:53 PM 59.0 °F - 1.0 °F 10% 29.93 in 10.0 mi North 11.5 mph 27.6 mph N/A   Clear
2:53 PM 59.0 °F - 1.0 °F 10% 29.96 in 10.0 mi Calm Calm - N/A   Clear
3:53 PM 57.0 °F - 1.9 °F 11% 29.97 in 10.0 mi West 17.3 mph 23.0 mph N/A   Clear
4:53 PM 53.1 °F - 3.0 °F 13% 30.02 in 10.0 mi North 11.5 mph - N/A   Clear
5:53 PM 43.0 °F 37.7 °F 6.1 °F 22% 30.11 in 10.0 mi NNW 9.2 mph - N/A   Clear
6:53 PM 39.9 °F 32.1 °F 9.0 °F 28% 30.15 in 10.0 mi North 13.8 mph - N/A   Clear
7:53 PM 37.0 °F 31.0 °F 10.9 °F 34% 30.18 in 10.0 mi NE 8.1 mph - N/A   Clear
8:53 PM 34.0 °F 27.2 °F 10.9 °F 38% 30.17 in 10.0 mi NNE 8.1 mph 17.3 mph N/A   Clear
9:53 PM 34.0 °F 28.8 °F 10.9 °F 38% 30.17 in 10.0 mi East 5.8 mph - N/A   Clear
10:53 PM 30.0 °F 26.5 °F 10.0 °F 43% 30.17 in 10.0 mi West 3.5 mph - N/A   Clear
11:53 PM 33.1 °F 30.0 °F 10.9 °F 40% 30.15 in 10.0 mi SE 3.5 mph - N/A   Clear